Location: Lake Lucerne
(45.5315°N, 88.8489°W)
Time: 21:35:37
(UTC-06:00)

Tiangong 1 - Visible Passes

Search period start: 15 December 2017 00:00
Search period end: 25 December 2017 00:00
Orbit: 275 x 301 km, 42.8° (Epoch: 15 December)

Date Brightness Start Highest point End Pass type
(mag) Time Alt. Az. Time Alt. Az. Time Alt. Az.
19 Dec 3.9 06:12:45 10° SSE 06:13:23 11° SSE 06:14:00 10° SE visible
20 Dec 3.4 06:15:09 10° SSW 06:16:52 17° SSE 06:18:36 10° ESE visible
21 Dec 2.7 06:18:11 10° SW 06:20:18 24° SSE 06:22:26 10° ESE visible
22 Dec 2.0 06:21:30 11° SW 06:23:39 32° SSE 06:25:58 10° ESE visible
23 Dec 1.6 06:24:58 13° WSW 06:26:56 40° S 06:29:20 10° ESE visible
24 Dec 1.4 06:28:13 14° WSW 06:30:07 43° S 06:32:32 10° ESE visible
